Location: Agadir Irigdalene
(31.2522°N, 8.7797°W)
Time: 16:29:49
(UTC+00:00)

NOSS 3-2 (C) - Pass Details

Date: 01 December 2020
Orbit: 789 x 1424 km, 63.4° (Epoch: 09 January)

Event Time Altitude Azimuth Distance (km) Brightness Sun altitude
Rises 18:03:01 0° 180° (S) 3,266 6.6 -6.9°
Reaches altitude 10° 18:05:38 10° 169° (S) 2,359 5.7 -7.4°
Maximum altitude 18:10:12 29° 110° (ESE) 1,477 4.1 -8.3°
Drops below altitude 10° 18:15:08 10° 52° (NE) 2,556 5.1 -9.3°
Enters shadow 18:15:13 10° 52° (NE) 2,580 5.1 -9.3°
